LiveATC.Net - Listen to live air traffic control over the Internet!


ICAO: ESGG  IATA: GOT   Airport: Landvetter Airport
City: Gothenburg
Country: Sweden   Continent: Europe
ESGG METAR Weather: ESGG 190920Z 36007KT CAVOK 10/01 Q1025
ESGG Flight Activity (FlightAware)

ESGG Gnd/Twr/Control
Feed Status: UP   Listeners: 1
Listen in your browser - HTML5 player (in browser, HTML5)
Click here to listen with your own player (launches your MP3 player)
ESGG Gnd/Twr/Control Audio Archives
FacilityFrequency
Emergency/Guard121.500
Goteborg Arrival120.125
Goteborg Control124.200
Goteborg Control124.675
Landvetter Ground121.900
Landvetter Tower118.605

NOTICE

Unauthorized use prohibited. See LiveATC.net Terms of Service


Airport/ARTCC Code
Frequency Search
(e.g., 124.400, 128.75)
Site-wide search
 


Browse LiveATC Feeds
Top 50 LiveATC Feeds
LiveATC Feed Map
Bad Weather Areas

LiveATC FAQ
Offer LiveATC feed
Contact LiveATC.net
Press Inquiries

LiveATC on iPhone
LiveATC on Android

Windows Phone
Windows 8/10

LiveATC Mobile
(Mobile browser)

ATC Audio Archives
Interesting Recordings

LiveATC Forums


Home Page
About LiveATC.net
Make a Donation
Terms of Use
Privacy Policy

Canadian Air Freqs

AIRMETs/SIGMETs

FAA Airport Status
Nat'l Airspace Status
Arrival Demand Charts


Server Software By:
Icecast.org
Liquidsoap